Weather History for Tehachapi, CA

Change the Weather History Date:

Thursday, April 26, 2012

  Actual Average Record
Temperature  
Mean Temperature 52 °F -  
Max Temperature 57 °F 62 °F 71 °F (2013)
Min Temperature 46 °F 38 °F 32 °F (2014)
Degree Days  
Heating Degree Days 14    
Growing Degree Days 2 (Base 50)    
Moisture  
Dew Point 47 °F    
Average Humidity 88    
Maximum Humidity 100    
Minimum Humidity 67    
Precipitation  
Precipitation 0.39 in - - ()
Sea Level Pressure  
Sea Level Pressure 29.96 in    
Wind  
Wind Speed 14 mph (NW)    
Max Wind Speed 34 mph    
Max Gust Speed 44 mph    
Visibility 7 miles    
Events Rain    
Averages and records for this station are not official NWS values.
T = Trace of Precipitation, MM = Missing Value Source: NWS Daily Summary

Daily Weather History Graph

Daily Weather History Graph

Search for Another Location

Airport:

Trip Planner

Search our weather history database for the weather conditions in past years. The results will help you decide how hot, cold, wet, or windy it might be!

Date:

Astronomy

Apr. 26, 2012 Rise Set
Actual Time 6:07 AM PDT 7:35 PM PDT
Civil Twilight 5:40 AM PDT 8:02 PM PDT
Nautical Twilight 5:08 AM PDT 8:34 PM PDT
Astronomical Twilight 4:35 AM PDT 9:08 PM PDT
Moon 9:56 AM PDT (4/26) No Moon Set
Length of Visible Light 14h 21m
Length of Day
13h 28m
Waxing Crescent, 25% of the Moon is Illuminated
Apr 26
Waxing Crescent
Apr 29
First Quarter
May 5
Full
May 12
Last Quarter
May 20
New

Hourly Weather History & Observations

Time (PDT) Temp. Windchill Dew Point Humidity Pressure Visibility Wind Dir Wind Speed Gust Speed Precip Events Conditions
12:35 AM 51.8 °F - 44.6 °F 76% 29.91 in 9.0 mi North 8.1 mph - 0.01 in Rain Light Rain
12:55 AM 51.8 °F - 41.0 °F 67% 29.90 in 10.0 mi North 8.1 mph - 0.01 in   Overcast
1:15 AM 51.8 °F - 41.0 °F 67% 29.90 in 10.0 mi NNW 8.1 mph - N/A   Overcast
1:35 AM 51.8 °F - 41.0 °F 67% 29.88 in 10.0 mi NNW 6.9 mph - N/A   Mostly Cloudy
1:55 AM 51.8 °F - 44.6 °F 76% 29.89 in 10.0 mi NE 8.1 mph - N/A   Overcast
2:15 AM 51.8 °F - 42.8 °F 71% 29.88 in 8.0 mi North 5.8 mph - N/A Rain Light Rain
2:35 AM 50.0 °F - 44.6 °F 82% 29.87 in 5.0 mi Calm Calm - 0.01 in Rain Light Rain
2:55 AM 50.0 °F - 46.4 °F 87% 29.87 in 10.0 mi NW 5.8 mph - 0.01 in   Overcast
3:15 AM 50.0 °F - 44.6 °F 82% 29.87 in 8.0 mi NW 5.8 mph - N/A Rain Light Rain
3:35 AM 50.0 °F - 44.6 °F 82% 29.88 in 10.0 mi NW 6.9 mph - N/A   Overcast
3:55 AM 50.0 °F - 46.4 °F 87% 29.87 in 10.0 mi NW 13.8 mph - N/A   Overcast
4:15 AM 48.2 °F - 46.4 °F 93% 29.87 in 7.0 mi NW 11.5 mph - N/A   Overcast
4:35 AM 48.2 °F - 48.2 °F 100% 29.88 in 6.0 mi NW 6.9 mph - N/A   Overcast
4:55 AM 48.2 °F - 48.2 °F 100% 29.87 in 5.0 mi West 8.1 mph - N/A Rain Light Rain
5:15 AM 48.2 °F - 46.4 °F 93% 29.88 in 5.0 mi West 9.2 mph - N/A   Overcast
5:35 AM 48.2 °F - 48.2 °F 100% 29.87 in 5.0 mi NW 11.5 mph - N/A Rain Light Rain
5:55 AM 48.2 °F - 48.2 °F 100% 29.86 in 4.0 mi WNW 9.2 mph - N/A   Overcast
6:15 AM 48.2 °F - 48.2 °F 100% 29.87 in 4.0 mi NW 9.2 mph - N/A   Overcast
6:35 AM 48.2 °F - 48.2 °F 100% 29.87 in 2.0 mi NW 12.7 mph - N/A   Overcast
6:55 AM 48.2 °F - 48.2 °F 100% 29.89 in 4.0 mi NW 12.7 mph - N/A   Overcast
7:15 AM 48.2 °F - 48.2 °F 100% 29.90 in 1.8 mi NW 12.7 mph - N/A   Overcast
7:35 AM 48.2 °F - 48.2 °F 100% 29.90 in 0.8 mi WNW 10.4 mph - 0.16 in Rain Heavy Rain
7:55 AM 48.2 °F - 48.2 °F 100% 29.91 in 0.2 mi NW 18.4 mph 24.2 mph 0.21 in Rain Light Rain
8:15 AM 48.2 °F - 48.2 °F 100% 29.92 in 0.2 mi WNW 16.1 mph 20.7 mph N/A Rain Light Rain
8:35 AM 48.2 °F - 48.2 °F 100% 29.93 in 0.2 mi WNW 19.6 mph 26.5 mph N/A Rain Light Rain
8:55 AM 48.2 °F - 48.2 °F 100% 29.94 in 0.8 mi WNW 17.3 mph 24.2 mph 0.01 in Rain Light Rain
9:15 AM 48.2 °F - 48.2 °F 100% 29.95 in 0.2 mi NW 19.6 mph 26.5 mph 0.04 in Rain Light Rain
9:35 AM 46.4 °F 39.0 °F 46.4 °F 100% 29.96 in 0.2 mi NW 19.6 mph 28.8 mph 0.08 in Rain Light Rain
9:55 AM 46.4 °F 39.0 °F 46.4 °F 100% 29.97 in 0.2 mi NW 19.6 mph 28.8 mph 0.14 in Rain Heavy Rain
10:15 AM 48.2 °F - 48.2 °F 100% 29.97 in 0.8 mi NW 13.8 mph 20.7 mph N/A Rain Light Rain
10:35 AM 50.0 °F - 50.0 °F 100% 29.97 in 5.0 mi NW 15.0 mph 19.6 mph N/A   Overcast
10:55 AM 48.2 °F - 48.2 °F 100% 29.98 in 8.0 mi NW 13.8 mph - N/A   Overcast
11:15 AM 48.2 °F - 48.2 °F 100% 29.99 in 8.0 mi NW 17.3 mph 23.0 mph N/A   Overcast
11:35 AM 50.0 °F - 50.0 °F 100% 29.99 in 9.0 mi NW 11.5 mph - N/A   Overcast
11:55 AM 50.0 °F - 48.2 °F 94% 29.99 in 9.0 mi NW 13.8 mph - N/A   Overcast
12:35 PM 51.8 °F - 46.4 °F 82% 30.00 in 10.0 mi NW 12.7 mph 23.0 mph N/A   Overcast
1:15 PM 50.0 °F - 48.2 °F 94% 30.00 in 1.5 mi NW 20.7 mph 25.3 mph 0.01 in Rain Light Rain
1:35 PM 50.0 °F - 50.0 °F 100% 30.00 in 6.0 mi WNW 17.3 mph 26.5 mph 0.01 in   Mostly Cloudy
1:55 PM 51.8 °F - 48.2 °F 88% 30.01 in 9.0 mi West 21.9 mph 28.8 mph 0.01 in   Overcast
2:15 PM 53.6 °F - 48.2 °F 82% 30.01 in 10.0 mi WNW 21.9 mph 31.1 mph N/A   Overcast
2:35 PM 55.4 °F - 48.2 °F 77% 30.02 in 9.0 mi NW 21.9 mph 27.6 mph N/A   Overcast
2:55 PM 53.6 °F - 48.2 °F 82% 30.02 in 9.0 mi WNW 23.0 mph 33.4 mph N/A   Overcast
3:15 PM 55.4 °F - 48.2 °F 77% 30.02 in 9.0 mi NW 24.2 mph 32.2 mph N/A   Overcast
3:35 PM 53.6 °F - 48.2 °F 82% 30.02 in 10.0 mi WNW 20.7 mph 29.9 mph N/A   Mostly Cloudy
3:55 PM 57.2 °F - 46.4 °F 67% 30.01 in 9.0 mi WNW 23.0 mph 34.5 mph N/A   Mostly Cloudy
4:15 PM 55.4 °F - 48.2 °F 77% 30.02 in 10.0 mi WNW 26.5 mph 33.4 mph N/A   Mostly Cloudy
4:35 PM 53.6 °F - 48.2 °F 82% 30.01 in 10.0 mi NW 27.6 mph 35.7 mph N/A   Mostly Cloudy
4:55 PM 51.8 °F - 48.2 °F 88% 30.00 in 7.0 mi WNW 28.8 mph 39.1 mph N/A Rain Light Rain
5:15 PM 53.6 °F - 48.2 °F 82% 30.00 in 8.0 mi WNW 28.8 mph 39.1 mph N/A Rain Light Rain
5:35 PM 53.6 °F - 46.4 °F 77% 30.00 in 9.0 mi WNW 27.6 mph 41.4 mph N/A   Overcast
5:55 PM 53.6 °F - 46.4 °F 77% 29.99 in 8.0 mi WNW 27.6 mph 43.7 mph N/A   Mostly Cloudy
6:15 PM 53.6 °F - 44.6 °F 72% 30.00 in 10.0 mi WNW 27.6 mph 36.8 mph N/A   Partly Cloudy
6:35 PM 53.6 °F - 42.8 °F 67% 30.01 in 9.0 mi WNW 31.1 mph 40.3 mph N/A   Mostly Cloudy
6:55 PM 51.8 °F - 46.4 °F 82% 30.00 in 9.0 mi WNW 34.5 mph 40.3 mph N/A   Overcast
7:15 PM 50.0 °F - 46.4 °F 87% 30.01 in 8.0 mi NW 32.2 mph 41.4 mph N/A   Overcast
7:35 PM - - - N/A% 30.00 in - WNW 25.3 mph 40.3 mph N/A   Unknown
7:55 PM 50.0 °F - 44.6 °F 82% 30.02 in 10.0 mi WNW 29.9 mph 38.0 mph N/A   Overcast
8:15 PM 50.0 °F - 44.6 °F 82% 30.03 in 10.0 mi NW 29.9 mph 40.3 mph N/A   Overcast
8:35 PM 50.0 °F - 44.6 °F 82% - 10.0 mi North - - N/A   Unknown
8:55 PM 50.0 °F - 44.6 °F 82% 30.03 in 10.0 mi WNW 24.2 mph 29.9 mph N/A   Unknown
9:15 PM 50.0 °F - 44.6 °F 82% 30.04 in 10.0 mi NW 25.3 mph 31.1 mph N/A   Overcast
9:35 PM - - - N/A% - - North - - N/A   Unknown
9:55 PM 48.2 °F - 46.4 °F 93% 30.05 in 10.0 mi WNW 29.9 mph 35.7 mph N/A   Unknown
10:15 PM 48.2 °F - 46.4 °F 93% 30.05 in 8.0 mi NW 26.5 mph 39.1 mph N/A   Overcast
10:35 PM 48.2 °F - 46.4 °F 93% 30.06 in 9.0 mi NW 27.6 mph 34.5 mph N/A   Mostly Cloudy
11:15 PM 48.2 °F - 44.6 °F 87% 30.07 in 8.0 mi WNW 25.3 mph 39.1 mph N/A   Overcast
11:35 PM 48.2 °F - 44.6 °F 87% 30.07 in 8.0 mi WNW 21.9 mph 32.2 mph N/A   Overcast
11:55 PM - - - N/A% - - North - - N/A   Unknown